Regional Weather Roundup
Issued by NWS

Home | Current Version | Previous Version | Graphics & Text | Print | Product List | Glossary On
Versions: 1 2 3 4 5 6 7 8 9 10 11 12 13 14 15 16 17 18 19 20 21 22 23 24 25 26 27 28 29 30 31 32 33 34 35 36 37 38 39 40 41 42 43 44 45 46 47 48 49 50
425
ASUS45 KCYS 250610
RWRWY

WYOMING REGIONAL WEATHER ROUNDUP
NATIONAL WEATHER SERVICE CHEYENNE WY
1200 AM MDT SUN JUN 25 2017

NOTE:  "FAIR" INDICATES FEW OR NO CLOUDS BELOW 12,000 FEET
WITH NO SIGNIFICANT WEATHER AND/OR OBSTRUCTIONS TO VISIBILITY.

WYZ001-250700-
YELLOWSTONE NATIONAL PARK

CITY           SKY/WX    TMP DP  RH WIND       PRES   REMARKS
LK YELLOWSTONE   N/A     42  33  70 CALM      30.47S
6HR MIN TEMP:  42; 6HR MAX TEMP:  65;

W YELLOWSTONE  NOT AVBL

$$
WYZ002>013-054>058-071-098>099-250700-
NORTHERN WYOMING

CITY           SKY/WX    TMP DP  RH WIND       PRES   REMARKS
JACKSON        FAIR      46  37  71 NE5       30.36S
CODY           FAIR      56  37  49 CALM      30.39S
GREYBULL       MOCLDY    67  32  27 NW9       30.29S
6HR MIN TEMP:  67; 6HR MAX TEMP:  78;

WORLAND        FAIR      63  42  46 SW6       30.32R
6HR MIN TEMP:  61; 6HR MAX TEMP:  77;

SHERIDAN       FAIR      51  42  71 SW3       30.36S
6HR MIN TEMP:  51; 6HR MAX TEMP:  74;

BUFFALO        CLOUDY    60  33  36 CALM      30.41R
6HR MIN TEMP:  57; 6HR MAX TEMP:  69;

GILLETTE       FAIR      48  37  65 CALM      30.38R
6HR MIN TEMP:  48; 6HR MAX TEMP:  72;

NEWCASTLE      FAIR      57  27  30 NE9       30.37R

$$
WYZ014>020-022>026-101>103-250700-
CENTRAL WYOMING

CITY           SKY/WX    TMP DP  RH WIND       PRES   REMARKS
BIG PINEY      FAIR      53  36  52 VRB6      30.39R
6HR MIN TEMP:  50; 6HR MAX TEMP:  75;

PINEDALE       FAIR      50  39  66 NW5       30.40R
DUBOIS         FAIR      48  32  53 CALM      30.43S
LANDER         CLOUDY    59  36  42 NW6       30.37R
6HR MIN TEMP:  59; 6HR MAX TEMP:  74; 6HR PCP: TRACE;

RIVERTON       FAIR      59  36  42 E12       30.37R
6HR MIN TEMP:  59; 6HR MAX TEMP:  73;

CASPER         CLOUDY    58  33  39 E8        30.39R
6HR MIN TEMP:  58; 6HR MAX TEMP:  70;

DOUGLAS        CLOUDY    55  35  47 E6        30.40R
6HR MIN TEMP:  54; 6HR MAX TEMP:  72;


$$
WYZ021-027>030-104>119-250700-
SOUTHERN WYOMING

CITY           SKY/WX    TMP DP  RH WIND       PRES   REMARKS
EVANSTON       FAIR      60  37  42 E5        30.37S
6HR MIN TEMP:  60; 6HR MAX TEMP:  76;

KEMMERER         N/A     54  36  50 NW13      30.38S
FORT BRIDGER   FAIR      59  32  36 W9        30.39S
ROCK SPRINGS   FAIR      57  32  38 NE10      30.34R
6HR MIN TEMP:  57; 6HR MAX TEMP:  76;

DIXON          FAIR      55  27  33 NE10      30.35S
RAWLINS        FAIR      55  32  41 NE13      30.37S
6HR MIN TEMP:  55; 6HR MAX TEMP:  72;

SARATOGA       FAIR      50  36  57 SE7       30.38S
LARAMIE        FAIR      51  34  52 SE10      30.42F
6HR MIN TEMP:  50; 6HR MAX TEMP:  66;

CHEYENNE       FAIR      54  37  52 CALM      30.40S
6HR MIN TEMP:  53; 6HR MAX TEMP:  69;

TORRINGTON     CLOUDY    59  36  42 NE9       30.34R
6HR MIN TEMP:  59; 6HR MAX TEMP:  74;

PINE BLUFFS    FAIR      52  43  71 CALM      30.37S

$$




USA.gov is the U.S. government's official web portal to all federal, state and local government web resources and services.